| time (UTC) | temp F | wind direction | speed MPH | gust MPH | rain 1hr in | rain 24hr in | rain mn in | humidity % | barometer mb |
| 20260906082533 | 51 | 272 | 5.0 | 14.0 | 0.00 | 0.00 | 0.00 | 75 | 1008.7 |
| 20260906082033 | 50 | 216 | 5.0 | 16.0 | 0.00 | 0.00 | 0.00 | 74 | 1008.6 |
| 20260906081557 | 51 | 349 | 7.0 | 16.0 | 0.00 | 0.00 | 0.00 | 74 | 1008.5 |
| 20260906081029 | 50 | 282 | 1.0 | 12.0 | 0.00 | 0.00 | 0.00 | 77 | 1008.6 |
| 20260906080532 | 49 | 4 | 4.0 | 15.0 | 0.00 | 0.00 | 0.00 | 77 | 1008.5 |
| 20260906080106 | 49 | 321 | 6.0 | 15.0 | 0.00 | 0.00 | 0.00 | 76 | 1008.5 |
| 20260906075532 | 50 | 302 | 3.0 | 15.0 | 0.00 | 0.00 | 0.00 | 78 | 1008.5 |
| 20260906075032 | 50 | 9 | 8.0 | 15.0 | 0.00 | 0.00 | 0.00 | 74 | 1008.4 |
| 20260906074603 | 50 | 14 | 7.0 | 15.0 | 0.00 | 0.00 | 0.00 | 76 | 1008.3 |
| 20260906074030 | 49 | 359 | 4.0 | 16.0 | 0.00 | 0.00 | 0.00 | 78 | 1008.3 |
| 20260906073530 | 49 | 347 | 4.0 | 16.0 | 0.00 | 0.00 | 0.00 | 76 | 1008.2 |
| 20260906073057 | 49 | 239 | 6.0 | 15.0 | 0.00 | 0.00 | 0.00 | 77 | 1008.3 |
| 20260906072530 | 49 | 316 | 4.0 | 15.0 | 0.00 | 0.00 | 0.00 | 79 | 1008.2 |
| 20260906072030 | 48 | 302 | 7.0 | 15.0 | 0.00 | 0.00 | 0.00 | 80 | 1008.2 |
| 20260906071553 | 48 | 19 | 6.0 | 25.0 | 0.00 | 0.00 | 0.00 | 81 | 1008.0 |
| 20260906071033 | 48 | 9 | 6.0 | 25.0 | 0.00 | 0.00 | 0.00 | 81 | 1008.0 |
| 20260906070533 | 48 | 345 | 3.0 | 12.0 | 0.00 | 0.00 | 0.00 | 81 | 1007.9 |
| 20260906070052 | 48 | 351 | 3.0 | 9.0 | 0.00 | 0.00 | 0.00 | 85 | 1007.8 |
| 20260906065532 | 47 | 339 | 1.0 | 11.0 | 0.00 | 0.00 | 0.00 | 86 | 1007.8 |
| 20260906065031 | 47 | 327 | 2.0 | 12.0 | 0.00 | 0.00 | 0.00 | 86 | 1007.8 |
| 20260906064548 | 47 | 288 | 3.0 | 12.0 | 0.00 | 0.00 | 0.00 | 86 | 1007.6 |
| 20260906064031 | 48 | 35 | 4.0 | 12.0 | 0.00 | 0.00 | 0.00 | 85 | 1007.5 |
| 20260906063530 | 48 | 251 | 3.0 | 12.0 | 0.00 | 0.00 | 0.00 | 85 | 1007.5 |
| 20260906063048 | 48 | 299 | 4.0 | 11.0 | 0.00 | 0.00 | 0.00 | 86 | 1007.5 |
| 20260906062530 | 47 | 294 | 4.0 | 11.0 | 0.00 | 0.00 | 0.00 | 88 | 1007.4 |
| 20260906062030 | 47 | 309 | 2.0 | 9.0 | 0.00 | 0.00 | 0.00 | 87 | 1007.4 |
| 20260906061546 | 46 | 329 | 3.0 | 9.0 | 0.00 | 0.00 | 0.00 | 88 | 1007.3 |
| 20260906061029 | 46 | 274 | 2.0 | 8.0 | 0.00 | 0.00 | 0.00 | 89 | 1007.3 |
| 20260906060533 | 46 | 276 | 2.0 | 9.0 | 0.00 | 0.00 | 0.00 | 90 | 1007.3 |
| 20260906060052 | 45 | 327 | 2.0 | 9.0 | 0.00 | 0.00 | 0.00 | 91 | 1007.2 |
| 20260906055532 | 45 | 275 | 3.0 | 8.0 | 0.00 | 0.00 | 0.00 | 92 | 1007.1 |
| 20260906055030 | 44 | 341 | 1.0 | 7.0 | 0.00 | 0.00 | 0.00 | 94 | 1007.0 |
| 20260906054550 | 44 | 342 | 2.0 | 7.0 | 0.00 | 0.00 | 0.00 | 95 | 1007.0 |
| 20260906054030 | 43 | 309 | 2.0 | 7.0 | 0.00 | 0.00 | 0.00 | 96 | 1006.9 |
| 20260906053531 | 42 | 258 | 1.0 | 6.0 | 0.00 | 0.00 | 0.00 | 96 | 1006.9 |
| 20260906053043 | 42 | 284 | 1.0 | 6.0 | 0.00 | 0.00 | 0.00 | 96 | 1006.7 |
| 20260906052535 | 42 | 286 | 2.0 | 6.0 | 0.00 | 0.00 | 0.00 | 96 | 1006.7 |
| 20260906052031 | 42 | 236 | 1.0 | 6.0 | 0.00 | 0.00 | 0.00 | 96 | 1006.7 |
| 20260906051600 | 41 | 292 | 2.0 | 6.0 | 0.00 | 0.00 | 0.00 | 96 | 1006.6 |
| 20260906051033 | 41 | 278 | 1.0 | 3.0 | 0.00 | 0.00 | 0.00 | 96 | 1006.7 |
| 20260906050530 | 40 | 0 | 0.0 | 0.0 | 0.00 | 0.00 | 0.00 | 96 | 1006.5 |
| 20260906045529 | 39 | 0 | 0.0 | 0.0 | 0.00 | 0.00 | 0.00 | 95 | 1006.4 |
| 20260906045030 | 38 | 0 | 0.0 | 0.0 | 0.00 | 0.00 | 0.00 | 95 | 1006.4 |
| 20260906044551 | 37 | 0 | 0.0 | 0.0 | 0.00 | 0.00 | 0.00 | 95 | 1006.4 |
| 20260906044031 | 37 | 0 | 0.0 | 0.0 | 0.00 | 0.00 | 0.00 | 94 | 1006.3 |
| 20260906043534 | 37 | 0 | 0.0 | 0.0 | 0.00 | 0.00 | 0.00 | 94 | 1006.2 |
| 20260906043052 | 37 | 0 | 0.0 | 0.0 | 0.00 | 0.00 | 0.00 | 94 | 1006.2 |
| 20260906042529 | 37 | 0 | 0.0 | 0.0 | 0.00 | 0.00 | 0.00 | 94 | 1006.1 |
| 20260906042030 | 37 | 0 | 0.0 | 0.0 | 0.00 | 0.00 | 0.00 | 94 | 1006.0 |
| 20260906041544 | 37 | 0 | 0.0 | 0.0 | 0.00 | 0.00 | 0.00 | 94 | 1006.0 |
| 20260906041030 | 37 | 0 | 0.0 | 0.0 | 0.00 | 0.00 | 0.00 | 94 | 1006.0 |
| 20260906040529 | 37 | 0 | 0.0 | 0.0 | 0.00 | 0.00 | 0.00 | 94 | 1006.0 |
| 20260906040053 | 37 | 0 | 0.0 | 0.0 | 0.00 | 0.00 | 0.00 | 94 | 1006.0 |
| 20260906035531 | 37 | 0 | 0.0 | 0.0 | 0.00 | 0.00 | 0.00 | 94 | 1005.9 |
| 20260906035029 | 37 | 0 | 0.0 | 0.0 | 0.00 | 0.00 | 0.00 | 94 | 1005.8 |
| 20260906034606 | 38 | 0 | 0.0 | 0.0 | 0.00 | 0.00 | 0.00 | 94 | 1005.7 |
| 20260906034031 | 38 | 0 | 0.0 | 0.0 | 0.00 | 0.00 | 0.00 | 94 | 1005.7 |
| 20260906033531 | 38 | 0 | 0.0 | 0.0 | 0.00 | 0.00 | 0.00 | 94 | 1005.6 |
| 20260906033045 | 38 | 0 | 0.0 | 0.0 | 0.00 | 0.00 | 0.00 | 94 | 1005.6 |
| 20260906032529 | 38 | 0 | 0.0 | 0.0 | 0.00 | 0.00 | 0.00 | 94 | 1005.6 |
| 20260906032030 | 39 | 0 | 0.0 | 0.0 | 0.00 | 0.00 | 0.00 | 94 | 1005.6 |
| 20260906031552 | 39 | 0 | 0.0 | 0.0 | 0.00 | 0.00 | 0.00 | 94 | 1005.6 |
| 20260906031029 | 39 | 0 | 0.0 | 0.0 | 0.00 | 0.00 | 0.00 | 94 | 1005.5 |
| 20260906030533 | 39 | 0 | 0.0 | 0.0 | 0.00 | 0.00 | 0.00 | 95 | 1005.3 |
| 20260906030050 | 39 | 0 | 0.0 | 0.0 | 0.00 | 0.00 | 0.00 | 95 | 1005.3 |
| 20260906025530 | 40 | 0 | 0.0 | 0.0 | 0.00 | 0.00 | 0.00 | 95 | 1005.2 |
| 20260906025030 | 40 | 0 | 0.0 | 0.0 | 0.00 | 0.00 | 0.00 | 95 | 1005.2 |
| 20260906024554 | 40 | 0 | 0.0 | 0.0 | 0.00 | 0.00 | 0.00 | 95 | 1005.1 |
| 20260906024030 | 40 | 0 | 0.0 | 0.0 | 0.00 | 0.00 | 0.00 | 95 | 1005.1 |
| 20260906023530 | 40 | 0 | 0.0 | 0.0 | 0.00 | 0.00 | 0.00 | 95 | 1005.1 |
| 20260906023056 | 40 | 0 | 0.0 | 0.0 | 0.00 | 0.00 | 0.00 | 95 | 1005.0 |
| 20260906022532 | 41 | 0 | 0.0 | 0.0 | 0.00 | 0.00 | 0.00 | 95 | 1005.0 |
| 20260906022030 | 41 | 0 | 0.0 | 0.0 | 0.00 | 0.00 | 0.00 | 95 | 1004.9 |
| 20260906021551 | 41 | 0 | 0.0 | 0.0 | 0.00 | 0.00 | 0.00 | 95 | 1004.9 |
| 20260906021029 | 41 | 0 | 0.0 | 0.0 | 0.00 | 0.00 | 0.00 | 95 | 1004.9 |
| 20260906020529 | 41 | 0 | 0.0 | 0.0 | 0.00 | 0.00 | 0.00 | 95 | 1004.8 |
| 20260906020058 | 42 | 0 | 0.0 | 0.0 | 0.00 | 0.00 | 0.00 | 95 | 1004.8 |
| 20260906015532 | 42 | 0 | 0.0 | 0.0 | 0.00 | 0.00 | 0.00 | 95 | 1004.8 |
| 20260906015031 | 42 | 0 | 0.0 | 0.0 | 0.00 | 0.00 | 0.00 | 95 | 1004.8 |
| 20260906014544 | 42 | 0 | 0.0 | 0.0 | 0.00 | 0.00 | 0.00 | 95 | 1004.7 |
| 20260906014032 | 43 | 0 | 0.0 | 0.0 | 0.00 | 0.00 | 0.00 | 95 | 1004.7 |
| 20260906013534 | 43 | 0 | 0.0 | 0.0 | 0.00 | 0.00 | 0.00 | 95 | 1004.6 |
| 20260906013104 | 43 | 0 | 0.0 | 0.0 | 0.00 | 0.00 | 0.00 | 95 | 1004.6 |
| 20260906012532 | 43 | 0 | 0.0 | 0.0 | 0.00 | 0.00 | 0.00 | 95 | 1004.5 |
| 20260906012029 | 43 | 0 | 0.0 | 0.0 | 0.00 | 0.00 | 0.00 | 95 | 1004.5 |
| 20260906011553 | 43 | 0 | 0.0 | 0.0 | 0.00 | 0.00 | 0.00 | 95 | 1004.5 |
| 20260906011031 | 43 | 0 | 0.0 | 0.0 | 0.00 | 0.00 | 0.00 | 95 | 1004.5 |
| 20260906010529 | 43 | 0 | 0.0 | 0.0 | 0.00 | 0.00 | 0.00 | 95 | 1004.4 |
| 20260906010049 | 43 | 0 | 0.0 | 0.0 | 0.00 | 0.00 | 0.00 | 95 | 1004.3 |
| 20260906005531 | 43 | 0 | 0.0 | 0.0 | 0.00 | 0.00 | 0.00 | 95 | 1004.3 |
| 20260906005033 | 43 | 0 | 0.0 | 0.0 | 0.00 | 0.00 | 0.00 | 95 | 1004.2 |
| 20260906004554 | 43 | 0 | 0.0 | 0.0 | 0.00 | 0.00 | 0.00 | 95 | 1004.3 |
| 20260906004032 | 44 | 0 | 0.0 | 0.0 | 0.00 | 0.00 | 0.00 | 95 | 1004.3 |
| 20260906003532 | 44 | 0 | 0.0 | 0.0 | 0.00 | 0.00 | 0.00 | 95 | 1004.1 |
| 20260906003050 | 44 | 0 | 0.0 | 0.0 | 0.00 | 0.00 | 0.00 | 95 | 1004.1 |
| 20260906002533 | 44 | 0 | 0.0 | 0.0 | 0.00 | 0.00 | 0.00 | 96 | 1004.2 |
| 20260906002034 | 44 | 0 | 0.0 | 0.0 | 0.00 | 0.00 | 0.00 | 96 | 1004.1 |
| 20260906001548 | 44 | 0 | 0.0 | 0.0 | 0.00 | 0.00 | 0.00 | 96 | 1004.0 |
| 20260906001035 | 44 | 0 | 0.0 | 0.0 | 0.00 | 0.00 | 0.00 | 96 | 1003.9 |
| 20260906000532 | 43 | 0 | 0.0 | 2.0 | 0.00 | 0.00 | 0.00 | 96 | 1004.0 |
| 20260906000052 | 43 | 0 | 0.0 | 3.0 | 0.00 | 0.00 | 0.00 | 96 | 1004.0 |
| 20260905235533 | 43 | 0 | 0.0 | 3.0 | 0.00 | 0.00 | 0.00 | 96 | 1004.1 |
| 20260905235033 | 43 | 0 | 0.0 | 2.0 | 0.00 | 0.00 | 0.00 | 96 | 1004.0 |
| 20260905234618 | 42 | 335 | 0.0 | 2.0 | 0.00 | 0.00 | 0.00 | 96 | 1004.1 |
| 20260905234032 | 42 | 295 | 0.0 | 4.0 | 0.00 | 0.00 | 0.00 | 96 | 1004.0 |
| 20260905233534 | 42 | 295 | 1.0 | 4.0 | 0.00 | 0.00 | 0.00 | 96 | 1004.0 |
| 20260905233050 | 42 | 255 | 0.0 | 3.0 | 0.00 | 0.00 | 0.00 | 95 | 1004.0 |
| 20260905232532 | 42 | 0 | 0.0 | 0.0 | 0.00 | 0.00 | 0.00 | 95 | 1004.0 |
| 20260905232032 | 42 | 0 | 0.0 | 0.0 | 0.00 | 0.00 | 0.00 | 95 | 1003.9 |
| 20260905231548 | 42 | 0 | 0.0 | 0.0 | 0.00 | 0.00 | 0.00 | 95 | 1003.9 |
| 20260905231033 | 42 | 0 | 0.0 | 0.0 | 0.00 | 0.00 | 0.00 | 95 | 1003.9 |
| 20260905230533 | 42 | 0 | 0.0 | 0.0 | 0.00 | 0.00 | 0.00 | 95 | 1003.8 |
| 20260905230045 | 41 | 0 | 0.0 | 0.0 | 0.00 | 0.00 | 0.00 | 95 | 1003.8 |
| 20260905225533 | 41 | 0 | 0.0 | 0.0 | 0.00 | 0.00 | 0.00 | 95 | 1003.7 |
| 20260905225033 | 41 | 0 | 0.0 | 0.0 | 0.00 | 0.00 | 0.00 | 95 | 1003.7 |
| 20260905224552 | 41 | 0 | 0.0 | 0.0 | 0.00 | 0.00 | 0.00 | 95 | 1003.7 |
| 20260905224034 | 41 | 0 | 0.0 | 0.0 | 0.00 | 0.00 | 0.00 | 95 | 1003.7 |
| 20260905223532 | 41 | 0 | 0.0 | 0.0 | 0.00 | 0.00 | 0.00 | 95 | 1003.8 |
| 20260905223052 | 41 | 0 | 0.0 | 0.0 | 0.00 | 0.00 | 0.00 | 95 | 1003.7 |
| 20260905222534 | 41 | 0 | 0.0 | 0.0 | 0.00 | 0.00 | 0.00 | 95 | 1003.7 |
| 20260905222032 | 41 | 0 | 0.0 | 0.0 | 0.00 | 0.00 | 0.00 | 95 | 1003.6 |
| 20260905221550 | 41 | 0 | 0.0 | 1.0 | 0.00 | 0.00 | 0.00 | 95 | 1003.6 |
| 20260905221035 | 42 | 0 | 0.0 | 2.0 | 0.00 | 0.00 | 0.00 | 95 | 1003.5 |
| 20260905220533 | 42 | 0 | 0.0 | 2.0 | 0.00 | 0.00 | 0.00 | 95 | 1003.5 |
| 20260905215534 | 43 | 255 | 0.0 | 2.0 | 0.00 | 0.00 | 0.00 | 95 | 1003.6 |
| 20260905215034 | 43 | 255 | 0.0 | 2.0 | 0.00 | 0.00 | 0.00 | 95 | 1003.5 |
| 20260905214549 | 43 | 0 | 0.0 | 3.0 | 0.00 | 0.00 | 0.00 | 95 | 1003.5 |
| 20260905214033 | 43 | 249 | 0.0 | 3.0 | 0.00 | 0.00 | 0.00 | 95 | 1003.4 |
| 20260905213530 | 44 | 278 | 1.0 | 3.0 | 0.00 | 0.00 | 0.00 | 95 | 1003.3 |
| 20260905213047 | 44 | 272 | 0.0 | 4.0 | 0.00 | 0.00 | 0.00 | 95 | 1003.2 |
| 20260905212530 | 44 | 272 | 2.0 | 4.0 | 0.00 | 0.00 | 0.00 | 95 | 1003.2 |
| 20260905212033 | 44 | 276 | 1.0 | 4.0 | 0.00 | 0.00 | 0.00 | 95 | 1003.2 |
| 20260905211542 | 44 | 0 | 0.0 | 0.0 | 0.00 | 0.00 | 0.00 | 95 | 1003.2 |
| 20260905211031 | 44 | 0 | 0.0 | 0.0 | 0.00 | 0.00 | 0.00 | 95 | 1003.1 |
| 20260905210529 | 44 | 0 | 0.0 | 0.0 | 0.00 | 0.00 | 0.00 | 95 | 1003.0 |
| 20260905210101 | 44 | 0 | 0.0 | 0.0 | 0.00 | 0.00 | 0.00 | 95 | 1003.0 |
| 20260905205529 | 44 | 0 | 0.0 | 0.0 | 0.00 | 0.00 | 0.00 | 95 | 1003.0 |
| 20260905205030 | 44 | 0 | 0.0 | 0.0 | 0.00 | 0.00 | 0.00 | 95 | 1003.0 |
| 20260905204554 | 44 | 0 | 0.0 | 0.0 | 0.00 | 0.00 | 0.00 | 95 | 1002.8 |
| 20260905204029 | 44 | 0 | 0.0 | 0.0 | 0.00 | 0.00 | 0.00 | 95 | 1002.8 |
| 20260905203531 | 44 | 0 | 0.0 | 0.0 | 0.00 | 0.00 | 0.00 | 95 | 1002.7 |
| 20260905203102 | 44 | 0 | 0.0 | 0.0 | 0.00 | 0.00 | 0.00 | 95 | 1002.7 |
| 20260905202533 | 44 | 0 | 0.0 | 0.0 | 0.00 | 0.00 | 0.00 | 95 | 1002.6 |
| 20260905202033 | 44 | 0 | 0.0 | 0.0 | 0.00 | 0.00 | 0.00 | 95 | 1002.6 |
| 20260905201552 | 44 | 0 | 0.0 | 2.0 | 0.00 | 0.00 | 0.00 | 95 | 1002.6 |
| 20260905201030 | 44 | 0 | 0.0 | 2.0 | 0.00 | 0.00 | 0.00 | 95 | 1002.5 |
| 20260905200530 | 43 | 4 | 0.0 | 3.0 | 0.00 | 0.00 | 0.00 | 95 | 1002.5 |
| 20260905200051 | 43 | 0 | 0.0 | 3.0 | 0.00 | 0.00 | 0.00 | 95 | 1002.4 |
| 20260905195532 | 43 | 4 | 0.0 | 3.0 | 0.00 | 0.00 | 0.00 | 95 | 1002.3 |
| 20260905195034 | 42 | 360 | 1.0 | 3.0 | 0.00 | 0.00 | 0.00 | 95 | 1002.2 |
| 20260905194547 | 42 | 0 | 0.0 | 3.0 | 0.00 | 0.00 | 0.00 | 95 | 1002.2 |
| 20260905194030 | 42 | 0 | 0.0 | 3.0 | 0.00 | 0.00 | 0.00 | 95 | 1002.1 |
| 20260905193530 | 42 | 324 | 0.0 | 3.0 | 0.00 | 0.00 | 0.00 | 94 | 1002.1 |
| 20260905193043 | 41 | 22 | 1.0 | 3.0 | 0.00 | 0.00 | 0.00 | 94 | 1002.2 |
| 20260905192533 | 41 | 330 | 0.0 | 1.0 | 0.00 | 0.00 | 0.00 | 94 | 1002.2 |
| 20260905192033 | 41 | 0 | 0.0 | 2.0 | 0.00 | 0.00 | 0.00 | 94 | 1002.1 |
| 20260905191552 | 42 | 0 | 0.0 | 2.0 | 0.00 | 0.00 | 0.00 | 94 | 1002.1 |
| 20260905191033 | 42 | 319 | 0.0 | 2.0 | 0.00 | 0.00 | 0.00 | 94 | 1002.1 |
| 20260905190529 | 42 | 0 | 0.0 | 1.0 | 0.00 | 0.00 | 0.00 | 93 | 1002.0 |
| 20260905190049 | 42 | 0 | 0.0 | 1.0 | 0.00 | 0.00 | 0.00 | 94 | 1002.0 |
| 20260905185533 | 42 | 0 | 0.0 | 2.0 | 0.00 | 0.00 | 0.00 | 94 | 1001.9 |
| 20260905185035 | 43 | 0 | 0.0 | 3.0 | 0.00 | 0.00 | 0.00 | 93 | 1001.9 |
| 20260905184557 | 43 | 342 | 0.0 | 3.0 | 0.00 | 0.00 | 0.00 | 93 | 1001.8 |
| 20260905184031 | 43 | 0 | 1.0 | 3.0 | 0.00 | 0.00 | 0.00 | 93 | 1001.8 |
| 20260905183529 | 43 | 352 | 1.0 | 3.0 | 0.00 | 0.00 | 0.00 | 93 | 1001.6 |
| 20260905183055 | 43 | 9 | 0.0 | 2.0 | 0.00 | 0.00 | 0.00 | 93 | 1001.6 |
| 20260905182534 | 44 | 0 | 0.0 | 3.0 | 0.00 | 0.00 | 0.00 | 92 | 1001.5 |
| 20260905182030 | 44 | 315 | 0.0 | 3.0 | 0.00 | 0.00 | 0.00 | 92 | 1001.5 |
| 20260905181553 | 44 | 0 | 0.0 | 3.0 | 0.00 | 0.00 | 0.00 | 92 | 1001.5 |
| 20260905181029 | 44 | 0 | 0.0 | 3.0 | 0.00 | 0.00 | 0.00 | 91 | 1001.5 |
| 20260905180529 | 45 | 354 | 1.0 | 3.0 | 0.00 | 0.00 | 0.00 | 91 | 1001.4 |
| 20260905180049 | 45 | 351 | 0.0 | 4.0 | 0.00 | 0.00 | 0.00 | 90 | 1001.4 |
| 20260905175530 | 46 | 359 | 1.0 | 4.0 | 0.00 | 0.00 | 0.00 | 90 | 1001.3 |
| 20260905175030 | 46 | 347 | 1.0 | 5.0 | 0.00 | 0.00 | 0.00 | 90 | 1001.3 |
| 20260905174548 | 46 | 9 | 1.0 | 5.0 | 0.00 | 0.00 | 0.00 | 90 | 1001.3 |
| 20260905174031 | 46 | 35 | 1.0 | 6.0 | 0.00 | 0.00 | 0.00 | 89 | 1001.2 |
| 20260905173532 | 47 | 355 | 1.0 | 6.0 | 0.00 | 0.00 | 0.00 | 88 | 1001.2 |
| 20260905173052 | 47 | 26 | 1.0 | 6.0 | 0.00 | 0.00 | 0.00 | 88 | 1001.1 |
| 20260905172530 | 47 | 52 | 2.0 | 6.0 | 0.00 | 0.00 | 0.00 | 88 | 1001.1 |
| 20260905172030 | 47 | 44 | 2.0 | 8.0 | 0.00 | 0.00 | 0.00 | 87 | 1001.0 |
| 20260905171610 | 48 | 33 | 1.0 | 8.0 | 0.00 | 0.00 | 0.00 | 87 | 1000.9 |
| 20260905171034 | 48 | 4 | 3.0 | 9.0 | 0.00 | 0.00 | 0.00 | 87 | 1000.9 |
| 20260905170529 | 48 | 349 | 2.0 | 11.0 | 0.00 | 0.00 | 0.00 | 86 | 1000.9 |
| 20260905170101 | 49 | 4 | 4.0 | 12.0 | 0.00 | 0.00 | 0.00 | 86 | 1000.7 |
| 20260905165534 | 49 | 34 | 5.0 | 12.0 | 0.00 | 0.00 | 0.00 | 86 | 1000.7 |
| 20260905165031 | 49 | 24 | 4.0 | 11.0 | 0.00 | 0.00 | 0.00 | 85 | 1000.6 |
| 20260905164549 | 49 | 28 | 4.0 | 12.0 | 0.00 | 0.00 | 0.00 | 85 | 1000.7 |
| 20260905164030 | 49 | 20 | 2.0 | 13.0 | 0.00 | 0.00 | 0.00 | 85 | 1000.6 |
| 20260905163533 | 50 | 353 | 5.0 | 14.0 | 0.00 | 0.00 | 0.00 | 84 | 1000.5 |
| 20260905163056 | 50 | 355 | 5.0 | 14.0 | 0.00 | 0.00 | 0.00 | 85 | 1000.6 |
| 20260905162529 | 50 | 352 | 5.0 | 14.0 | 0.00 | 0.00 | 0.00 | 85 | 1000.4 |
| 20260905162029 | 51 | 340 | 7.0 | 14.0 | 0.00 | 0.00 | 0.00 | 86 | 1000.3 |
| 20260905161550 | 51 | 20 | 4.0 | 12.0 | 0.00 | 0.00 | 0.00 | 87 | 1000.4 |
| 20260905161033 | 51 | 51 | 3.0 | 15.0 | 0.00 | 0.00 | 0.00 | 87 | 1000.2 |
| 20260905160531 | 51 | 339 | 6.0 | 15.0 | 0.00 | 0.00 | 0.00 | 86 | 1000.1 |
| 20260905160058 | 51 | 338 | 6.0 | 15.0 | 0.00 | 0.00 | 0.00 | 85 | 1000.1 |
| 20260905155530 | 52 | 14 | 7.0 | 12.0 | 0.00 | 0.00 | 0.00 | 83 | 1000.0 |
| 20260905155032 | 53 | 43 | 4.0 | 11.0 | 0.00 | 0.00 | 0.00 | 82 | 1000.0 |
| 20260905154556 | 53 | 45 | 3.0 | 11.0 | 0.00 | 0.00 | 0.00 | 82 | 999.8 |
| 20260905154033 | 52 | 4 | 2.0 | 11.0 | 0.00 | 0.00 | 0.00 | 82 | 999.6 |
| 20260905153530 | 53 | 31 | 4.0 | 15.0 | 0.00 | 0.00 | 0.00 | 81 | 999.6 |
| 20260905153053 | 53 | 53 | 4.0 | 15.0 | 0.00 | 0.00 | 0.00 | 80 | 999.5 |
| 20260905152537 | 53 | 32 | 6.0 | 15.0 | 0.00 | 0.00 | 0.00 | 80 | 999.5 |
| 20260905152033 | 53 | 309 | 5.0 | 11.0 | 0.00 | 0.00 | 0.00 | 81 | 999.5 |
| 20260905151552 | 53 | 241 | 1.0 | 10.0 | 0.00 | 0.00 | 0.00 | 81 | 999.4 |
| 20260905151036 | 52 | 23 | 4.0 | 12.0 | 0.00 | 0.00 | 0.00 | 82 | 999.4 |
| 20260905150532 | 52 | 45 | 5.0 | 12.0 | 0.00 | 0.00 | 0.00 | 82 | 999.3 |
| 20260905150048 | 52 | 1 | 3.0 | 14.0 | 0.00 | 0.00 | 0.00 | 82 | 999.3 |
| 20260905145538 | 53 | 339 | 4.0 | 18.0 | 0.00 | 0.00 | 0.00 | 82 | 999.2 |
| 20260905145033 | 53 | 14 | 7.0 | 18.0 | 0.00 | 0.00 | 0.00 | 81 | 999.3 |
| 20260905144544 | 55 | 359 | 6.0 | 14.0 | 0.00 | 0.00 | 0.00 | 78 | 999.1 |
| 20260905144033 | 55 | 353 | 3.0 | 14.0 | 0.00 | 0.00 | 0.00 | 76 | 998.9 |
| 20260905143533 | 55 | 319 | 5.0 | 16.0 | 0.00 | 0.00 | 0.00 | 77 | 998.7 |
| 20260905143102 | 55 | 336 | 6.0 | 18.0 | 0.00 | 0.00 | 0.00 | 79 | 998.7 |
| 20260905142535 | 55 | 334 | 2.0 | 18.0 | 0.00 | 0.00 | 0.00 | 78 | 998.7 |
| 20260905142033 | 54 | 360 | 6.0 | 18.0 | 0.00 | 0.00 | 0.00 | 79 | 998.6 |
| 20260905141550 | 54 | 351 | 5.0 | 14.0 | 0.00 | 0.00 | 0.00 | 79 | 998.5 |
| 20260905141034 | 54 | 351 | 4.0 | 13.0 | 0.00 | 0.00 | 0.00 | 80 | 998.6 |
| 20260905140535 | 55 | 288 | 4.0 | 13.0 | 0.00 | 0.00 | 0.00 | 79 | 998.6 |
| 20260905140050 | 54 | 355 | 6.0 | 16.0 | 0.00 | 0.00 | 0.00 | 79 | 998.5 |
| 20260905135534 | 54 | 36 | 5.0 | 16.0 | 0.00 | 0.00 | 0.00 | 82 | 998.5 |
| 20260905135031 | 53 | 343 | 4.0 | 14.0 | 0.00 | 0.00 | 0.00 | 84 | 998.5 |
| 20260905134602 | 54 | 331 | 5.0 | 20.0 | 0.00 | 0.00 | 0.00 | 84 | 998.4 |
| 20260905134035 | 54 | 282 | 6.0 | 20.0 | 0.00 | 0.00 | 0.00 | 83 | 998.4 |
| 20260905133534 | 55 | 20 | 2.0 | 16.0 | 0.00 | 0.00 | 0.00 | 80 | 998.3 |
| 20260905133052 | 55 | 19 | 5.0 | 16.0 | 0.00 | 0.00 | 0.00 | 79 | 998.2 |
| 20260905132534 | 56 | 49 | 5.0 | 14.0 | 0.00 | 0.00 | 0.00 | 77 | 998.1 |
| 20260905132035 | 56 | 338 | 4.0 | 19.0 | 0.00 | 0.00 | 0.00 | 77 | 998.1 |
| 20260905131549 | 56 | 4 | 8.0 | 19.0 | 0.00 | 0.00 | 0.00 | 75 | 998.0 |
| 20260905131032 | 57 | 14 | 9.0 | 19.0 | 0.00 | 0.00 | 0.00 | 74 | 998.0 |
| 20260905130537 | 59 | 53 | 7.0 | 15.0 | 0.00 | 0.00 | 0.00 | 74 | 997.9 |
| 20260905130051 | 58 | 295 | 6.0 | 15.0 | 0.00 | 0.00 | 0.00 | 74 | 997.7 |
| 20260905125532 | 57 | 357 | 6.0 | 12.0 | 0.00 | 0.00 | 0.00 | 75 | 997.6 |
| 20260905125031 | 56 | 309 | 4.0 | 12.0 | 0.00 | 0.00 | 0.00 | 78 | 997.7 |
| 20260905124552 | 56 | 318 | 4.0 | 12.0 | 0.00 | 0.00 | 0.00 | 79 | 997.6 |
| 20260905124034 | 56 | 22 | 5.0 | 13.0 | 0.00 | 0.00 | 0.00 | 78 | 997.6 |
| 20260905123534 | 57 | 345 | 6.0 | 15.0 | 0.00 | 0.00 | 0.00 | 76 | 997.6 |
| 20260905123043 | 58 | 24 | 7.0 | 15.0 | 0.00 | 0.00 | 0.00 | 74 | 997.5 |
| 20260905122536 | 57 | 313 | 4.0 | 13.0 | 0.00 | 0.00 | 0.00 | 77 | 997.5 |
| 20260905122035 | 56 | 113 | 5.0 | 15.0 | 0.00 | 0.00 | 0.00 | 79 | 997.5 |
| 20260905121549 | 56 | 48 | 6.0 | 15.0 | 0.00 | 0.00 | 0.00 | 77 | 997.4 |
| 20260905121033 | 56 | 4 | 7.0 | 14.0 | 0.00 | 0.00 | 0.00 | 77 | 997.4 |
| 20260905120533 | 57 | 348 | 5.0 | 14.0 | 0.00 | 0.00 | 0.00 | 77 | 997.3 |
| 20260905120053 | 57 | 360 | 6.0 | 14.0 | 0.00 | 0.00 | 0.00 | 76 | 997.2 |
| 20260905115532 | 58 | 341 | 7.0 | 15.0 | 0.00 | 0.00 | 0.00 | 75 | 997.2 |
| 20260905115033 | 58 | 9 | 8.0 | 15.0 | 0.00 | 0.00 | 0.00 | 75 | 997.1 |
| 20260905114559 | 57 | 53 | 3.0 | 13.0 | 0.00 | 0.00 | 0.00 | 79 | 997.1 |
| 20260905114034 | 56 | 9 | 6.0 | 13.0 | 0.00 | 0.00 | 0.00 | 78 | 997.2 |
| 20260905113535 | 57 | 9 | 6.0 | 12.0 | 0.00 | 0.00 | 0.00 | 78 | 997.1 |
| 20260905113045 | 57 | 318 | 4.0 | 14.0 | 0.00 | 0.00 | 0.00 | 79 | 997.1 |
| 20260905112534 | 56 | 309 | 6.0 | 14.0 | 0.00 | 0.00 | 0.00 | 81 | 997.1 |
| 20260905112035 | 56 | 18 | 5.0 | 14.0 | 0.00 | 0.00 | 0.00 | 83 | 997.1 |
| 20260905111622 | 56 | 1 | 5.0 | 11.0 | 0.00 | 0.00 | 0.00 | 81 | 996.9 |
| 20260905111034 | 57 | 21 | 4.0 | 11.0 | 0.00 | 0.00 | 0.00 | 79 | 996.8 |
| 20260905110534 | 57 | 20 | 4.0 | 8.0 | 0.00 | 0.00 | 0.00 | 79 | 996.8 |
| 20260905110055 | 57 | 4 | 2.0 | 15.0 | 0.00 | 0.00 | 0.00 | 78 | 996.8 |
| 20260905105533 | 57 | 316 | 4.0 | 15.0 | 0.00 | 0.00 | 0.00 | 79 | 996.8 |
| 20260905105035 | 56 | 355 | 6.0 | 12.0 | 0.00 | 0.00 | 0.00 | 80 | 996.7 |
| 20260905104608 | 56 | 290 | 4.0 | 12.0 | 0.00 | 0.00 | 0.00 | 81 | 996.7 |
| 20260905104034 | 56 | 313 | 5.0 | 15.0 | 0.00 | 0.00 | 0.00 | 80 | 996.6 |
| 20260905103539 | 56 | 257 | 7.0 | 15.0 | 0.00 | 0.00 | 0.00 | 79 | 996.6 |
| 20260905103045 | 57 | 311 | 4.0 | 12.0 | 0.00 | 0.00 | 0.00 | 79 | 996.6 |
| 20260905102535 | 56 | 18 | 4.0 | 14.0 | 0.00 | 0.00 | 0.00 | 78 | 996.4 |
| 20260905102035 | 56 | 261 | 4.0 | 14.0 | 0.00 | 0.00 | 0.00 | 79 | 996.3 |
| 20260905101555 | 57 | 320 | 6.0 | 14.0 | 0.00 | 0.00 | 0.00 | 79 | 996.3 |
| 20260905101034 | 58 | 336 | 3.0 | 11.0 | 0.00 | 0.00 | 0.00 | 78 | 996.2 |
| 20260905100534 | 57 | 22 | 4.0 | 11.0 | 0.00 | 0.00 | 0.00 | 81 | 996.1 |
| 20260905100052 | 57 | 320 | 4.0 | 12.0 | 0.00 | 0.00 | 0.00 | 79 | 996.2 |
| 20260905095532 | 58 | 19 | 6.0 | 15.0 | 0.00 | 0.00 | 0.00 | 77 | 996.0 |
| 20260905095033 | 58 | 63 | 7.0 | 16.0 | 0.00 | 0.00 | 0.00 | 77 | 996.0 |
| 20260905094652 | 58 | 346 | 5.0 | 18.0 | 0.00 | 0.00 | 0.00 | 78 | 995.9 |
| 20260905094034 | 57 | 9 | 6.0 | 18.0 | 0.00 | 0.00 | 0.00 | 81 | 995.9 |
| 20260905093535 | 56 | 27 | 7.0 | 13.0 | 0.00 | 0.00 | 0.00 | 83 | 995.9 |
| 20260905093104 | 55 | 14 | 5.0 | 12.0 | 0.00 | 0.00 | 0.00 | 85 | 995.9 |
| 20260905092537 | 54 | 68 | 6.0 | 17.0 | 0.00 | 0.00 | 0.00 | 86 | 995.9 |
| 20260905092033 | 54 | 360 | 6.0 | 17.0 | 0.00 | 0.00 | 0.00 | 86 | 995.8 |
| 20260905091556 | 55 | 1 | 8.0 | 17.0 | 0.00 | 0.00 | 0.00 | 85 | 995.7 |
| 20260905091035 | 55 | 14 | 3.0 | 8.0 | 0.00 | 0.00 | 0.00 | 91 | 995.7 |
| 20260905090535 | 54 | 52 | 3.0 | 15.0 | 0.00 | 0.00 | 0.00 | 90 | 995.7 |
| 20260905090053 | 55 | 349 | 7.0 | 15.0 | 0.00 | 0.00 | 0.00 | 87 | 995.6 |
| 20260905085531 | 55 | 325 | 6.0 | 12.0 | 0.00 | 0.00 | 0.00 | 86 | 995.6 |
| 20260905085036 | 55 | 9 | 1.0 | 9.0 | 0.00 | 0.00 | 0.00 | 89 | 995.6 |
| 20260905084601 | 55 | 359 | 3.0 | 9.0 | 0.00 | 0.00 | 0.00 | 88 | 995.6 |
| 20260905084032 | 55 | 311 | 2.0 | 9.0 | 0.00 | 0.00 | 0.00 | 89 | 995.5 |
| 20260905083531 | 54 | 339 | 3.0 | 12.0 | 0.00 | 0.00 | 0.00 | 89 | 995.5 |
| 20260905083045 | 54 | 339 | 5.0 | 12.0 | 0.00 | 0.00 | 0.00 | 90 | 995.5 |